Pittsburgh, Pennsylvania, United States (15201)
Lat: 40.44N, Lon: 80W
Wx Zone: PAZ021
Local Info
Past Weather Observations for Today

NOTE: This archive is for the closest National Weather Service station to Pittsburgh. Information may differ from the station used for current weather conditions.

Click here for Long-term Archive

Time Weather Temperature Dewpoint Humidity Pressure Winds Precip Visibility
17:53
Clear
77°F / 25°C 48°F / 9°C 36% 29.95 in
(1014 mb)
WNW 6.9 mph
(WNW 11 kph)
- 10SM
16:53
Partly Cloudy
81°F / 27°C 48°F / 9°C 32% 29.95 in
(1014 mb)
W 8.1 mph
(W 13 kph)
- 10SM
15:53
Partly Cloudy
79°F / 26°C 48°F / 9°C 34% 29.95 in
(1014 mb)
SSW 8.1 mph
(SSW 13 kph)
- 10SM
14:53
Partly Cloudy
79°F / 26°C 50°F / 10°C 37% 29.98 in
(1015 mb)
W 10.4 mph
(W 17 kph)
- 10SM
13:53
Partly Cloudy
81°F / 27°C 50°F / 10°C 34% 29.98 in
(1015 mb)
SW 11.5 mph
(SW 19 kph)
- 10SM
12:53
Clear
79°F / 26°C 50°F / 10°C 37% 29.98 in
(1015 mb)
WNW 8.1 mph
(WNW 13 kph)
- 10SM
11:53
Clear
75°F / 24°C 48°F / 9°C 39% 30.01 in
(1016 mb)
Variable 3.5 mph
(Variable 6 kph)
- 10SM
10:53
Clear
73°F / 23°C 52°F / 11°C 47% 30.01 in
(1016 mb)
Calm - 10SM
09:53
Clear
72°F / 22°C 52°F / 11°C 50% 30.01 in
(1016 mb)
W 6.9 mph
(W 11 kph)
- 10SM
08:53
Clear
70°F / 21°C 55°F / 13°C 60% 30.01 in
(1016 mb)
SSW 6.9 mph
(SSW 11 kph)
- 10SM
07:53
Clear
66°F / 19°C 55°F / 13°C 68% 29.98 in
(1015 mb)
W 8.1 mph
(W 13 kph)
- 10SM
06:53
Clear
64°F / 18°C 57°F / 14°C 78% 29.98 in
(1015 mb)
SSW 9.2 mph
(SSW 15 kph)
- 10SM
05:53
Clear
64°F / 18°C 57°F / 14°C 78% 29.98 in
(1015 mb)
SSW 8.1 mph
(SSW 13 kph)
- 10SM
04:53
Partly Cloudy
64°F / 18°C 59°F / 15°C 83% 29.95 in
(1014 mb)
SSW 9.2 mph
(SSW 15 kph)
- 9SM
03:53
Clear
Fog And Mist
63°F / 17°C 59°F / 15°C 88% 29.92 in
(1013 mb)
SW 6.9 mph
(SW 11 kph)
- 4SM
03:49
Clear
Fog And Mist
63°F / 17°C 61°F / 16°C 94% 29.92 in
(1013 mb)
SSE 5.8 mph
(SSE 9 kph)
- 3SM
03:32
Clear
Fog And Mist
63°F / 17°C 59°F / 15°C 88% 29.92 in
(1013 mb)
S 4.6 mph
(S 7 kph)
- 1 3/4SM
02:53
Clear
64°F / 18°C 61°F / 16°C 88% 29.92 in
(1013 mb)
SW 5.8 mph
(SW 9 kph)
- 10SM
01:53
Clear
64°F / 18°C 61°F / 16°C 88% 29.89 in
(1012 mb)
WNW 4.6 mph
(WNW 7 kph)
- 9SM
00:53
Clear
66°F / 19°C 61°F / 16°C 83% 29.89 in
(1012 mb)
WNW 3.5 mph
(WNW 6 kph)
- 7SM
Time Weather Temperature Dewpoint Humidity Pressure Winds Precip Visibility


Weather for websites

WeatherForYou.com, LLC is not responsible for any damages or problems caused by this service. Current weather conditions are obtained from the closest station including government and personal stations which may have varying degrees of accuracy. Weather forecasts are derived from the NOAA NDFD. Like all things, this site belongs to Jesus Christ... He just trusts us to maintain it. If you have any questions or comments email webmaster@weatherforyou.com

Copyright © 2015, WeatherForYou.com LLC. All rights reserved.